| time (UTC) | temp F | wind direction | speed MPH | gust MPH | rain 1hr in | rain 24hr in | rain mn in | humidity % | barometer mb |
| 20260901204536 | 59 | 206 | 1.0 | 3.0 | 0.00 | 0.00 | 0.00 | 77 | 1020.3 |
| 20260901203047 | 60 | 206 | 3.0 | 4.0 | 0.00 | 0.00 | 0.00 | 77 | 1020.4 |
| 20260901201544 | 60 | 206 | 1.0 | 3.0 | 0.00 | 0.00 | 0.00 | 77 | 1020.3 |
| 20260901200034 | 60 | 206 | 1.0 | 3.0 | 0.00 | 0.00 | 0.00 | 76 | 1020.1 |
| 20260901194531 | 60 | 206 | 1.0 | 3.0 | 0.00 | 0.00 | 0.00 | 76 | 1020.2 |
| 20260901193032 | 61 | 206 | 2.0 | 4.0 | 0.00 | 0.00 | 0.00 | 75 | 1020.3 |
| 20260901191530 | 61 | 206 | 0.0 | 2.0 | 0.00 | 0.00 | 0.00 | 74 | 1020.2 |
| 20260901190035 | 62 | 206 | 0.0 | 3.0 | 0.00 | 0.00 | 0.00 | 74 | 1020.1 |
| 20260901184530 | 63 | 206 | 1.0 | 2.0 | 0.00 | 0.00 | 0.00 | 72 | 1019.8 |
| 20260901183029 | 64 | 206 | 2.0 | 3.0 | 0.00 | 0.00 | 0.00 | 71 | 1019.6 |
| 20260901181528 | 66 | 208 | 1.0 | 4.0 | 0.00 | 0.00 | 0.00 | 69 | 1019.6 |
| 20260901180028 | 68 | 265 | 0.0 | 2.0 | 0.00 | 0.00 | 0.00 | 65 | 1019.5 |
| 20260901174531 | 70 | 314 | 0.0 | 2.0 | 0.00 | 0.00 | 0.00 | 64 | 1019.4 |
| 20260901173027 | 71 | 314 | 0.0 | 4.0 | 0.00 | 0.00 | 0.00 | 58 | 1019.3 |
| 20260901171526 | 72 | 309 | 0.0 | 1.0 | 0.00 | 0.00 | 0.00 | 55 | 1019.2 |
| 20260901170026 | 73 | 307 | 1.0 | 4.0 | 0.00 | 0.00 | 0.00 | 56 | 1019.3 |
| 20260901164525 | 73 | 317 | 1.0 | 4.0 | 0.00 | 0.00 | 0.00 | 56 | 1019.4 |
| 20260901163024 | 73 | 311 | 1.0 | 4.0 | 0.00 | 0.00 | 0.00 | 57 | 1019.5 |
| 20260901161534 | 74 | 303 | 1.0 | 5.0 | 0.00 | 0.00 | 0.00 | 56 | 1019.4 |
| 20260901160034 | 74 | 296 | 3.0 | 7.0 | 0.00 | 0.00 | 0.00 | 56 | 1019.5 |
| 20260901154523 | 73 | 354 | 2.0 | 6.0 | 0.00 | 0.00 | 0.00 | 55 | 1019.4 |
| 20260901153019 | 74 | 314 | 2.0 | 6.0 | 0.00 | 0.00 | 0.00 | 54 | 1019.4 |
| 20260901151519 | 75 | 347 | 2.0 | 5.0 | 0.00 | 0.00 | 0.00 | 53 | 1019.4 |
| 20260901150018 | 75 | 303 | 4.0 | 7.0 | 0.00 | 0.00 | 0.00 | 53 | 1019.4 |
| 20260901144518 | 76 | 300 | 1.0 | 9.0 | 0.00 | 0.00 | 0.00 | 52 | 1019.4 |
| 20260901143016 | 76 | 292 | 4.0 | 8.0 | 0.00 | 0.00 | 0.00 | 55 | 1019.4 |
| 20260901141514 | 74 | 311 | 1.0 | 7.0 | 0.00 | 0.00 | 0.00 | 58 | 1019.4 |
| 20260901140015 | 74 | 32 | 1.0 | 7.0 | 0.00 | 0.00 | 0.00 | 54 | 1019.6 |
| 20260901134516 | 73 | 77 | 0.0 | 4.0 | 0.00 | 0.00 | 0.00 | 59 | 1019.7 |
| 20260901133011 | 73 | 260 | 2.0 | 6.0 | 0.00 | 0.00 | 0.00 | 57 | 1019.8 |
| 20260901131513 | 75 | 301 | 3.0 | 10.0 | 0.00 | 0.00 | 0.00 | 55 | 1019.8 |
| 20260901130008 | 75 | 280 | 3.0 | 10.0 | 0.00 | 0.00 | 0.00 | 54 | 1020.0 |
| 20260901124505 | 74 | 269 | 6.0 | 10.0 | 0.00 | 0.00 | 0.00 | 58 | 1020.2 |
| 20260901123004 | 74 | 315 | 1.0 | 9.0 | 0.00 | 0.00 | 0.00 | 56 | 1020.1 |
| 20260901121504 | 73 | 3 | 2.0 | 7.0 | 0.00 | 0.00 | 0.00 | 59 | 1020.3 |
| 20260901120003 | 74 | 335 | 3.0 | 9.0 | 0.00 | 0.00 | 0.00 | 59 | 1020.4 |
| 20260901114600 | 73 | 330 | 1.0 | 9.0 | 0.00 | 0.00 | 0.00 | 63 | 1020.5 |
| 20260901113121 | 72 | 303 | 3.0 | 7.0 | 0.00 | 0.00 | 0.00 | 62 | 1020.5 |
| 20260901111654 | 72 | 66 | 1.0 | 5.0 | 0.00 | 0.00 | 0.00 | 59 | 1020.6 |
| 20260901110154 | 71 | 304 | 1.0 | 3.0 | 0.00 | 0.00 | 0.00 | 63 | 1020.7 |
| 20260901104548 | 70 | 297 | 1.0 | 4.0 | 0.00 | 0.00 | 0.00 | 66 | 1020.7 |
| 20260901103050 | 70 | 336 | 1.0 | 4.0 | 0.00 | 0.00 | 0.00 | 63 | 1020.8 |
| 20260901101609 | 69 | 267 | 2.0 | 4.0 | 0.00 | 0.00 | 0.00 | 65 | 1021.0 |
| 20260901100104 | 69 | 295 | 2.0 | 8.0 | 0.00 | 0.00 | 0.00 | 64 | 1021.1 |
| 20260901094547 | 71 | 306 | 1.0 | 7.0 | 0.00 | 0.00 | 0.00 | 62 | 1021.1 |
| 20260901093043 | 71 | 342 | 1.0 | 6.0 | 0.00 | 0.00 | 0.00 | 63 | 1021.1 |
| 20260901091540 | 70 | 312 | 1.0 | 7.0 | 0.00 | 0.00 | 0.00 | 65 | 1021.2 |
| 20260901090040 | 70 | 332 | 4.0 | 9.0 | 0.00 | 0.00 | 0.00 | 66 | 1021.3 |
| 20260901084542 | 70 | 311 | 1.0 | 5.0 | 0.00 | 0.00 | 0.00 | 69 | 1021.1 |
| 20260901083035 | 69 | 318 | 2.0 | 4.0 | 0.00 | 0.00 | 0.00 | 68 | 1021.1 |
| 20260901081525 | 69 | 11 | 2.0 | 5.0 | 0.00 | 0.00 | 0.00 | 67 | 1021.0 |
| 20260901080022 | 68 | 299 | 0.0 | 3.0 | 0.00 | 0.00 | 0.00 | 68 | 1021.0 |
| 20260901074518 | 68 | 297 | 1.0 | 4.0 | 0.00 | 0.00 | 0.00 | 66 | 1020.9 |
| 20260901073012 | 67 | 313 | 0.0 | 3.0 | 0.00 | 0.00 | 0.00 | 69 | 1020.9 |
| 20260901071509 | 66 | 307 | 1.0 | 3.0 | 0.00 | 0.00 | 0.00 | 69 | 1020.8 |
| 20260901070004 | 65 | 238 | 1.0 | 2.0 | 0.00 | 0.00 | 0.00 | 71 | 1020.8 |
| 20260901064603 | 64 | 237 | 0.0 | 3.0 | 0.00 | 0.00 | 0.00 | 75 | 1020.8 |
| 20260901063055 | 63 | 213 | 0.0 | 0.0 | 0.00 | 0.00 | 0.00 | 77 | 1020.8 |
| 20260901061551 | 62 | 213 | 0.0 | 0.0 | 0.00 | 0.00 | 0.00 | 77 | 1020.8 |
| 20260901060047 | 61 | 213 | 0.0 | 2.0 | 0.00 | 0.00 | 0.00 | 77 | 1020.7 |
| 20260901054541 | 59 | 192 | 0.0 | 0.0 | 0.00 | 0.00 | 0.00 | 80 | 1020.6 |
| 20260901053101 | 57 | 192 | 0.0 | 0.0 | 0.00 | 0.00 | 0.00 | 82 | 1020.6 |
| 20260901051533 | 56 | 192 | 0.0 | 0.0 | 0.00 | 0.00 | 0.00 | 83 | 1020.5 |
| 20260901050030 | 56 | 192 | 0.0 | 3.0 | 0.00 | 0.00 | 0.00 | 83 | 1020.5 |
| 20260901044531 | 56 | 88 | 1.0 | 4.0 | 0.00 | 0.00 | 0.00 | 83 | 1020.5 |
| 20260901043036 | 55 | 225 | 1.0 | 3.0 | 0.00 | 0.00 | 0.00 | 83 | 1020.4 |
| 20260901041528 | 55 | 236 | 0.0 | 3.0 | 0.00 | 0.00 | 0.00 | 83 | 1020.5 |
| 20260901040026 | 56 | 291 | 2.0 | 3.0 | 0.00 | 0.00 | 0.00 | 82 | 1020.5 |
| 20260901034523 | 55 | 227 | 1.0 | 4.0 | 0.00 | 0.00 | 0.00 | 83 | 1020.4 |
| 20260901033036 | 55 | 208 | 3.0 | 4.0 | 0.00 | 0.00 | 0.00 | 83 | 1020.3 |
| 20260901031523 | 55 | 200 | 2.0 | 4.0 | 0.00 | 0.00 | 0.00 | 83 | 1020.4 |
| 20260901030023 | 55 | 207 | 0.0 | 3.0 | 0.00 | 0.00 | 0.00 | 83 | 1020.3 |
| 20260901024522 | 55 | 206 | 2.0 | 3.0 | 0.00 | 0.00 | 0.00 | 83 | 1020.5 |
| 20260901023020 | 55 | 206 | 2.0 | 3.0 | 0.00 | 0.00 | 0.00 | 83 | 1020.5 |
| 20260901021523 | 55 | 206 | 1.0 | 3.0 | 0.00 | 0.00 | 0.00 | 82 | 1020.6 |
| 20260901020040 | 56 | 206 | 0.0 | 0.0 | 0.00 | 0.00 | 0.00 | 81 | 1020.4 |
| 20260901014515 | 57 | 206 | 0.0 | 2.0 | 0.00 | 0.00 | 0.00 | 80 | 1020.4 |
| 20260901013014 | 57 | 206 | 2.0 | 4.0 | 0.00 | 0.00 | 0.00 | 80 | 1020.3 |
| 20260901011514 | 57 | 207 | 3.0 | 5.0 | 0.00 | 0.00 | 0.00 | 80 | 1020.5 |
| 20260901010014 | 57 | 207 | 2.0 | 4.0 | 0.00 | 0.02 | 0.00 | 80 | 1020.4 |
| 20260901004512 | 57 | 205 | 3.0 | 5.0 | 0.00 | 0.02 | 0.00 | 80 | 1020.5 |
| 20260901003012 | 56 | 220 | 5.0 | 6.0 | 0.00 | 0.02 | 0.00 | 82 | 1020.5 |
| 20260901001511 | 56 | 219 | 3.0 | 5.0 | 0.00 | 0.02 | 0.00 | 82 | 1020.5 |
| 20260901000009 | 56 | 220 | 1.0 | 3.0 | 0.00 | 0.19 | 0.00 | 82 | 1020.4 |
| 20260831234507 | 56 | 219 | 2.0 | 3.0 | 0.00 | 0.19 | 0.00 | 81 | 1020.5 |
| 20260831233008 | 57 | 220 | 0.0 | 3.0 | 0.00 | 0.19 | 0.00 | 80 | 1020.5 |
| 20260831231502 | 58 | 224 | 1.0 | 3.0 | 0.00 | 0.19 | 0.00 | 77 | 1020.5 |
| 20260831230058 | 60 | 224 | 0.0 | 2.0 | 0.00 | 0.19 | 0.00 | 73 | 1020.3 |
| 20260831224556 | 61 | 224 | 1.0 | 6.0 | 0.00 | 0.19 | 0.00 | 72 | 1020.4 |
| 20260831223053 | 61 | 221 | 4.0 | 6.0 | 0.00 | 0.19 | 0.00 | 71 | 1020.3 |
| 20260831221551 | 62 | 225 | 5.0 | 8.0 | 0.00 | 0.19 | 0.00 | 69 | 1020.3 |
| 20260831220108 | 61 | 234 | 5.0 | 8.0 | 0.00 | 0.19 | 0.00 | 70 | 1020.3 |
| 20260831214549 | 62 | 224 | 5.0 | 7.0 | 0.00 | 0.19 | 0.19 | 70 | 1020.3 |
| 20260831213047 | 62 | 226 | 5.0 | 6.0 | 0.00 | 0.19 | 0.19 | 68 | 1020.3 |
| 20260831211602 | 62 | 222 | 5.0 | 7.0 | 0.00 | 0.19 | 0.19 | 69 | 1020.3 |
| 20260831210050 | 63 | 232 | 5.0 | 11.0 | 0.00 | 0.19 | 0.19 | 68 | 1020.1 |